COSMOS 2251 DEB, 34813

Orbit data source: Space-Track

COSMOS 2251 DEB, 34813 is space debris in LEO originally from a launch on Wed, 16 Jun 1993 UTC launched from the Plesetsk Missile And Space Complex (PKMTR). The debris from Iridium 33, an American commercial communications satellite, has been tracked extensively since its accidental collision with the defunct Russian satellite Cosmos 2251 in 2009. This event, occurring at high speed in low Earth orbit (LEO), generated thousands of pieces of space debris, significantly increasing the risk of further collisions. The Iridium 33 debris cloud has impacted space traffic management and orbital debris mitigation strategies, making it a subject of ongoing study in space situational awareness.

Loading next visibility...
Identifier
34813, 1993-036ABC
Orbit
LEO
Country
Flag of CISCIS
Related business
Manufacturer
Unknown
Mission
Spacecraft
Bus & Motor
Unknown
Mass
Unknown
Launch date (UTC)
1993-06-16 (33 years ago)
Launch vehicle
Unknown
Launch site
Plesetsk Missile And Space Complex (PKMTR)
Object type
Payload
Rocket body
Debris
Shape & HBR
Unknown shape, 0.1 m
Radar Cross Section
Medium (>0.1 m² and <1 m²)

Expand to show TLE details & history
Last TLE update: 3 weeks ago

TLE from 3 weeks ago
0 COSMOS 2251 DEB
1 34813U 93036ABC 26151.61077183  .00004822  00000-0  40407-2 0  9991
2 34813  73.9301 219.8365 0440639 221.9692 134.6865 13.51488177839496
Epoch: 2026-05-31T14:39Z
TLE epoch observation values (Epoch: 2026-05-31T14:39:30.686Z)
Latitude
-0.00003°
Longitude
110.84866°
Altitude
1,306.996 km
Speed
7.088 km/s
True Right ascension
14h 39m 20s
True Declination
0° 00' 00"
Sunlit
Object was in full shadow at epoch
Visualization orbit readout
Latitude
Unknown
Longitude
Unknown
Altitude
Unknown
Speed
Unknown
Apparent Right ascension
Unknown
Apparent Declination
Unknown
Sunlit
N/A
Visualization observer readout
Local Sidereal Time
03:11:43
Azimuth
Unknown
Elevation
Unknown
Doppler factor
Unknown
Orbital elements
Apogee altitude
1,392.461 km
Perigee altitude
736.557 km
Semi-major axis
7,442.646 km
Eccentricity
0.04406
Inclination
73.9301°
RAAN
219.8365°
Arg. of periapsis
221.9692°
True anomaly
138.14028°
Mean anomaly
134.6865°
Eccentric anomaly
136.42671°
Mean motion
3.38028 °/min
Orbital period
106.5 mins
BSTAR
0.0040407
Loading maneuver chart data...
Computing Atmospheric mass density...

Documentation

Showing up to 5 results
|